Volver al catálogo

STARLINK-4570

ActivoComunicacionesSSO
NORAD 53690·PAYLOAD·🇺🇸 United States

Lanzado Aug 31, 2022 desde Vandenberg Space Force Base

Loading…

Próximos Pases (próximas 24 horas)

TLE

ActualizadoSource: CelesTrak SupGP

Época: Sep 14, 2026, 21:21 UTC

1 53690C 22105AU  26257.89006944 -.00016095  00000+0 -11180-2 0  2577
2 53690  97.2843 131.9864 0002164  86.9323 234.7289 15.05648454    12

Sigue STARLINK-4570 en tiempo real con AllMySat

Download on the App Store